Masbate, Philippines

10:00 PM +08 on May 22, 2018 (GMT +0800)
Mactan-Cebu International

Weather History for RPVM - November, 2012

Change the Weather History Date:

Saturday, November 10, 2012

  Actual Average Record
Temperature  
Mean Temperature 83 °F -  
Max Temperature 90 °F 86 °F 91 °F (2013)
Min Temperature 76 °F 76 °F 70 °F (2016)
Cooling Degree Days 18    
Growing Degree Days 33 (Base 50)    
Moisture  
Dew Point 78 °F    
Average Humidity 83    
Maximum Humidity 91    
Minimum Humidity 70    
Precipitation  
Precipitation 0.55 in - - ()
Sea Level Pressure  
Sea Level Pressure 29.82 in    
Wind  
Wind Speed 4 mph ()    
Max Wind Speed 12 mph    
Max Gust Speed -    
Visibility 8.0 miles    
Events Rain    
Averages and records for this station are not official NWS values.
T = Trace of Precipitation, MM = Missing Value Source: Averaged Metar Reports

Daily Weather History Graph

Daily Weather History Graph

Search for Another Location

Airport or City:

Astronomy

Nov. 10, 2012 Rise Set
Actual Time 5:41 AM +08 5:17 PM +08
Civil Twilight 5:19 AM +08 5:39 PM +08
Nautical Twilight 4:53 AM +08 6:05 PM +08
Astronomical Twilight 4:28 AM +08 6:30 PM +08
Moon 1:48 AM +08 (11/10) 2:08 PM +08 (11/10)
Length of Visible Light 12h 20m
Length of Day
11h 35m
Waning Crescent, 19% of the Moon is Illuminated
Nov 10
Waning Crescent
Nov 14
New
Nov 20
First Quarter
Nov 28
Full
Dec 6
Last Quarter

Hourly Weather History & Observations

Time (+08) Temp. Heat Index Dew Point Humidity Pressure Visibility Wind Dir Wind Speed Gust Speed Precip Events Conditions
12:00 AM 80.6 °F 87.1 °F 77.0 °F 89% 29.86 in 5.0 mi North 5.8 mph - N/A   Scattered Clouds
1:00 AM 80.6 °F 87.1 °F 77.0 °F 89% 29.83 in 5.0 mi NW 5.8 mph - N/A   Mostly Cloudy
2:00 AM 80 °F - 76 °F 85% 29.81 in 11 mi East 4.5 mph - -   Scattered Clouds
2:00 AM 80.6 °F 87.1 °F 77.0 °F 89% 29.83 in 5.0 mi NNW 5.8 mph - N/A   Partly Cloudy
3:00 AM 80.6 °F 87.1 °F 77.0 °F 89% 29.80 in 6.2 mi North 4.6 mph - N/A   Mostly Cloudy
4:00 AM 80.6 °F 87.1 °F 77.0 °F 89% 29.83 in 6.2 mi Calm Calm - N/A   Partly Cloudy
5:00 AM 79 °F - 76 °F 89% 29.79 in 11 mi Calm Calm - -   Partly Cloudy
5:00 AM 80.6 °F 87.1 °F 77.0 °F 89% 29.83 in 6.2 mi NNE 2.3 mph - N/A   Mostly Cloudy
6:00 AM 80.6 °F 87.1 °F 77.0 °F 89% 29.83 in 6.2 mi North 2.3 mph - N/A   Mostly Cloudy
7:00 AM 80.6 °F 87.1 °F 77.0 °F 89% 29.83 in 6.2 mi NNW 2.3 mph - N/A   Mostly Cloudy
8:00 AM 83 °F - 80 °F 87% 29.87 in 12 mi Calm Calm - - Rain Light Rain Showers
8:00 AM 82.4 °F 92.4 °F 78.8 °F 89% 29.86 in 6.2 mi NE 6.9 mph - N/A   Mostly Cloudy
9:00 AM 84.2 °F 96.1 °F 78.8 °F 84% 29.86 in 6.2 mi East 4.6 mph - N/A   Mostly Cloudy
10:00 AM 86.0 °F 99.3 °F 78.8 °F 79% 29.86 in 6.2 mi NNE 4.6 mph - N/A   Mostly Cloudy
11:00 AM 90 °F - 82 °F 72% 29.86 in 19 mi Calm Calm - -   Partly Cloudy
11:00 AM 86.0 °F 99.3 °F 78.8 °F 79% 29.86 in 6.2 mi East 6.9 mph - N/A   Mostly Cloudy
12:00 PM 87.8 °F 102.5 °F 78.8 °F 75% 29.83 in 6.2 mi NNE 4.6 mph - N/A   Mostly Cloudy
1:00 PM 87.8 °F 102.5 °F 78.8 °F 75% 29.80 in 6.2 mi East 4.6 mph - N/A   Mostly Cloudy
2:00 PM 90 °F - 82 °F 71% 29.78 in 19 mi East 4.5 mph - -   Partly Cloudy
2:00 PM 87.8 °F 102.5 °F 78.8 °F 75% 29.80 in 6.2 mi NNE 4.6 mph - N/A   Mostly Cloudy
3:00 PM 87.8 °F 102.5 °F 78.8 °F 75% 29.77 in 6.2 mi ENE 5.8 mph - N/A   Mostly Cloudy
4:00 PM 87.8 °F 99.7 °F 77.0 °F 70% 29.77 in 6.2 mi NE 6.9 mph - N/A   Mostly Cloudy
5:00 PM 86 °F - 80 °F 79% 29.75 in 16 mi East 4.5 mph - -   Scattered Clouds
6:00 PM 84.2 °F 94.1 °F 77.0 °F 79% 29.77 in 6.2 mi NNE 11.5 mph - N/A   Mostly Cloudy
7:00 PM 82.4 °F 90.9 °F 77.0 °F 84% 29.80 in 6.2 mi NNE 9.2 mph - N/A   Mostly Cloudy
8:00 PM 83 °F - 78 °F 82% 29.81 in 11 mi NE 4.5 mph - -   Partly Cloudy
8:00 PM 82.4 °F 90.9 °F 77.0 °F 84% 29.83 in 6.2 mi North 6.9 mph - N/A   Mostly Cloudy
9:00 PM 82.4 °F 90.9 °F 77.0 °F 84% 29.80 in 6.2 mi NNW 4.6 mph - N/A   Mostly Cloudy
10:00 PM 80.6 °F 87.1 °F 77.0 °F 89% 29.83 in 6.2 mi NNE 11.5 mph - N/A   Mostly Cloudy
11:00 PM 80 °F - 78 °F 91% 29.83 in 9 mi ENE 6.7 mph - - Rain Light Rain
11:00 PM 80.6 °F 87.1 °F 77.0 °F 89% 29.83 in 6.2 mi North 4.6 mph - N/A   Mostly Cloudy